Location: Copeville
(33.0796°N, 96.4155°W)
Time: 19:52:17
(UTC+00:00)

NOAA 19 - Pass Details

Date: 05 April 2023
Orbit: 840 x 859 km, 99.1° (Epoch: 31 May)

Event Time Altitude Azimuth Distance (km) Brightness Sun altitude
Exits shadow 02:18:28 20° 159° (SSE) 1,840 6.6 -19.2°
Maximum altitude 02:22:18 79° 75° (ENE) 864 5.1 -19.9°
Drops below altitude 10° 02:27:46 10° 350° (N) 2,465 8.0 -21.0°
Sets 02:30:08 0° 349° (N) 3,402 8.8 -21.4°
